Flag for U.S.A. Weather past 2 weeks in Berkeley, California, U.S.A.

Now
72 °F

Passing clouds.


Feels Like: 75 °F
Forecast: 66 / 74 °F
Wind: 15 mph from Northwest

Location: Metro Oakland International Airport

Current Time: Sep 23, 2014 at 5:43:12 PM

Latest Report: Sep 23, 2014 at 4:53 PM


Visibility: 10 mi

Pressure: 29.92 "Hg

Humidity: 68%

Dew point: 61 °F

Location of BerkeleyLocation

Historic Weather in Berkeley — Graph

°F

Berkeley temperature yesterday

Maximum temperature yesterday: 74 °F (at 2:53 PM)
Minimum temperature yesterday: 64 °F (at 2:53 AM)
Average temperature yesterday: 67 °F

Past Weeks' High & Low Weather Summary

 TemperatureHumidityPressure
High82 °F (Sep 11, 1:53 PM)93% (Sep 10, 6:53 AM)30.04 "Hg (Sep 10, 6:53 AM)
Low55 °F (Sep 10, 1:53 AM)33% (Sep 11, 1:53 PM)29.75 "Hg (Sep 17, 6:53 PM)
Average66 °F73%29.89 "Hg
* Reported Sep 8 3:53 PM — Sep 23 3:53 PM, Berkeley, Weather by CustomWeather, © 2014

Note: Actual official high and low records may vary slightly from our data, if they occured in-between our weather recording intervals... More about our weather records

Advertising

Berkeley weather history for previous 24 hours

 ConditionsComfort  
Time TempWeatherWind HumidityBarometerVisibility
3:53 PM
Sep 23
74 °FPassing clouds.14 mph64%29.93 "Hg10 mi
2:53 PM75 °FPassing clouds.10 mph64%29.94 "Hg10 mi
1:53 PM73 °FPassing clouds.12 mph64%29.97 "Hg10 mi
12:53 PM71 °FPassing clouds.7 mph66%29.99 "Hg10 mi
11:53 AM69 °FPassing clouds.7 mph70%30.00 "Hg10 mi
10:53 AM67 °FPassing clouds.6 mph73%30.01 "Hg10 mi
9:53 AM66 °FScattered clouds.No wind75%30.01 "Hg10 mi
8:53 AM65 °FOvercast.3 mph78%30.01 "Hg10 mi
7:53 AM64 °FPassing clouds.3 mph81%29.99 "Hg10 mi
6:53 AM64 °FOvercast.3 mph81%29.98 "Hg10 mi
5:53 AM63 °FPassing clouds.8 mph81%29.98 "Hg10 mi
4:53 AM63 °FPassing clouds.6 mph81%29.97 "Hg10 mi
3:53 AM63 °FPassing clouds.8 mph81%29.97 "Hg10 mi
2:53 AM63 °FPassing clouds.7 mph81%29.97 "Hg10 mi
1:53 AM63 °FPassing clouds.9 mph81%29.99 "Hg10 mi
12:53 AM64 °FPassing clouds.12 mph78%29.98 "Hg10 mi
11:53 PM
Sep 22
64 °FPassing clouds.7 mph75%29.97 "Hg10 mi
10:53 PM65 °FPassing clouds.14 mph76%29.98 "Hg10 mi
9:53 PM65 °FClear.5 mph73%29.97 "Hg10 mi
8:53 PM66 °FClear.12 mph70%29.98 "Hg10 mi
7:53 PM66 °FPassing clouds.12 mph73%29.97 "Hg10 mi
6:53 PM68 °FScattered clouds.6 mph68%29.97 "Hg10 mi
5:53 PM71 °FScattered clouds.15 mph61%29.96 "Hg10 mi
Weather by CustomWeather, © 2014

See weather overviewHow to use our weather pages